Regional Weather Roundup
Issued by NWS New Orleans/Baton Rouge, LA

Home | Current Version | Previous Version | Text Only | Print | Product List | Glossary Off
Versions: 1 2 3 4 5 6 7 8 9 10 11 12 13 14 15 16 17 18 19 20 21 22 23 24 25 26 27 28 29 30 31 32 33 34 35 36 37 38 39 40 41 42 43 44 45 46 47 48 49 50

595
ASUS44 KLIX 231710
RWRLIX
NEW ORLEANS REGIONAL WEATHER ROUNDUP
NATIONAL WEATHER SERVICE NEW ORLEANS LA
1200 PM CDT WED JUL 23 2014

NOTE: "FAIR" INDICATES FEW OR NO CLOUDS BELOW 12,000 FEET WITH NO
      SIGNIFICANT WEATHER AND/OR OBSTRUCTIONS TO VISIBILITY.
      SKY/WX - SKY CONDITION AND SIGNIFICANT WEATHER.
      TMP - AIR TEMPERATURE.     DP    - DEWPOINT TEMPERATURE.
      RH  - RELATIVE HUMIDITY.   PRES  - PRESSURE.
      HI  - HEAT INDEX.          WCI   - WIND CHILL INDEX.

*  THESE STATIONS ARE NOT NWS OR FAA STATIONS AND ARE NOT UNDER
   NWS QUALITY CONTROL.

LAZ038-040-048-061>063-065>067-069-231800-
SOUTHEAST LOUISIANA

CITY           SKY/WX    TMP DP  RH WIND       PRES   REMARKS
N.O. AUDUBON     N/A     81  72  73 MISG        N/A
N.O. INTL ARPT LGT RAIN  77  72  84 CALM      30.06S
N.O. LAKEFRONT CLOUDY    79  72  79 S8        30.07S
N.O. DOWNTOWN*   N/A     81  70  69 S7        30.07S
SLIDELL        CLOUDY    81  70  69 S6        30.06S
BATON ROUGE    PTSUNNY   85  73  67 E6        30.06S
BOOTHVILLE     RAIN      75  72  90 SE6       30.09S FOG
BELLE CHASSE   CLOUDY    79  70  74 SE13      30.06S
BOGALUSA*        N/A     86  72  63 CALM      30.08S
GALLIANO*      NOT AVBL
NEW ROADS*       N/A     84  71  65 N5        30.06S
GONZALES*        N/A     86  74  66 E3        30.04F
HAMMOND*       MOSUNNY   88  70  55 W3        30.07F
HOUMA*         PTSUNNY   82  70  65 E5        30.07R
PORT FOURCHON* PTSUNNY   81  73  78 NE8       30.09R

$$

MSZ070-080>082-231800-
SOUTHERN MISSISSIPPI

CITY           SKY/WX    TMP DP  RH WIND       PRES   REMARKS
MCCOMB         SUNNY     84  69  60 S5        30.07F
GULFPORT       CLOUDY    83  71  67 VRB3      30.07R
BILOXI         CLOUDY    82  72  71 W2        30.07R
PASCAGOULA     CLOUDY    81  76  84 S3        30.07R

$$

COASTAL OBSERVATIONS
LAKE AND NEARSHORE STATIONS

STATION/POSITION TIME  TEMP    WIND        PRES    WAVE
                       AIR SEA DIR/SP/G            HT/PER
                 (UTC) (F)     (DEG/KT/KT) (MB)    (FT/S)
PASCAGOULA       1700   80     180/ 10/ 12 1017.8
WAVELAND YACHT   1700   81     120/  3/  4 1017.7
GRAND ISLE       1700   75 84  150/  5/ 11 1019.3
SOUTHWEST PASS   1700   81 84   90/  4/  5 1018.8
NEW CANAL        1700   78 81  140/  4/  6 1018.3
SHELL BEACH      1700   78 80  170/  8/ 10 1018.2

OFFSHORE STATIONS

STATION/POSITION TIME  TEMP    WIND        PRES    WAVE
                       AIR SEA DIR/SP/G            HT/PER
                 (UTC) (F)     (DEG/KT/KT) (MB)    (FT/S)
64 S DAUPHIN ISL 1558   79 85  250/ 14/ 16 1018.6

$$




USA.gov is the U.S. government's official web portal to all federal, state and local government web resources and services.